,,PA_Meas_PMT16A,,PR_Meas_QMR101_102,,RH_Meas_QMH101,,SR_Meas_QMS101,,TA_Meas_QMH101,,GenWind,,GenWind,
time,status,PA,status,PR,status,RH,status,SR,status,TA,status,DirAvg,status,SpdAvg,
2011-04-04, 00:00:04,VALID,918.837,VALID,0,VALID,92.8608,VALID,0,VALID,19.6248,VALID,4,VALID,1.66445,
2011-04-04, 00:01:04,VALID,918.833,VALID,0,VALID,92.533,VALID,0,VALID,19.7013,VALID,5,VALID,0.976953,
2011-04-04, 00:02:04,VALID,918.901,VALID,0,VALID,92.2357,VALID,0,VALID,19.7808,VALID,5,VALID,0.807813,
2011-04-04, 00:03:04,VALID,918.955,VALID,0,VALID,91.9384,VALID,0,VALID,19.8393,VALID,5,VALID,1.0418,
2011-04-04, 00:04:04,VALID,918.937,VALID,0,VALID,91.5267,VALID,0,VALID,19.9173,VALID,5,VALID,0.496094,
2011-04-04, 00:05:04,VALID,918.951,VALID,0,VALID,91.1913,VALID,0,VALID,20.0163,VALID,5,VALID,0.782812,
2011-04-04, 00:06:04,VALID,918.924,VALID,0,VALID,90.8406,VALID,0,VALID,20.0733,VALID,5,VALID,0.676172,
2011-04-04, 00:07:04,VALID,918.919,VALID,0,VALID,90.5281,VALID,0,VALID,20.1123,VALID,5,VALID,0.746094,
2011-04-04, 00:08:04,VALID,918.916,VALID,0,VALID,90.3604,VALID,0,VALID,20.1318,VALID,5,VALID,0.768359,
2011-04-04, 00:09:04,VALID,918.852,VALID,0,VALID,90.2917,VALID,0,VALID,20.1318,VALID,5,VALID,0.389844,
2011-04-04, 00:10:04,VALID,918.869,VALID,0,VALID,90.1393,VALID,0,VALID,20.1724,VALID,5,VALID,0.432813,
2011-04-04, 00:11:04,VALID,918.864,VALID,0,VALID,90.185,VALID,0,VALID,20.1318,VALID,5,VALID,0.560547,
2011-04-04, 00:12:04,VALID,918.856,VALID,0,VALID,90.3832,VALID,0,VALID,20.0928,VALID,5,VALID,0.399219,
2011-04-04, 00:13:04,VALID,918.827,VALID,0,VALID,90.3527,VALID,0,VALID,20.1334,VALID,5,VALID,0.721875,
2011-04-04, 00:14:04,VALID,918.79,VALID,0,VALID,90.4518,VALID,0,VALID,20.1334,VALID,5,VALID,0.852344,
2011-04-04, 00:15:04,VALID,918.794,VALID,0,VALID,90.2536,VALID,0,VALID,20.1123,VALID,5,VALID,0.782812,
2011-04-04, 00:16:04,VALID,918.794,VALID,0,VALID,90.3908,VALID,0,VALID,20.0928,VALID,5,VALID,0.450781,
2011-04-04, 00:17:04,VALID,918.782,VALID,0,VALID,90.5357,VALID,0,VALID,20.0718,VALID,5,VALID,1.03281,
2011-04-04, 00:18:04,VALID,918.745,VALID,0,VALID,90.4366,VALID,0,VALID,20.1108,VALID,5,VALID,0.803906,
2011-04-04, 00:19:04,VALID,918.763,VALID,0,VALID,90.2079,VALID,0,VALID,20.1708,VALID,5,VALID,1.39492,
2011-04-04, 00:20:04,VALID,918.751,VALID,0,VALID,89.9792,VALID,0,VALID,20.2309,VALID,5,VALID,0.344531,
2011-04-04, 00:21:04,VALID,918.726,VALID,0,VALID,89.8191,VALID,0,VALID,20.2293,VALID,5,VALID,0.122266,
2011-04-04, 00:22:04,VALID,918.707,VALID,0,VALID,89.7505,VALID,0,VALID,20.2293,VALID,5,VALID,0.105469,
2011-04-04, 00:23:04,VALID,918.733,VALID,0,VALID,89.7124,VALID,0,VALID,20.2489,VALID,5,VALID,0.532812,
2011-04-04, 00:24:04,VALID,918.705,VALID,0,VALID,89.5751,VALID,0,VALID,20.2699,VALID,5,VALID,0.496094,
2011-04-04, 00:25:04,VALID,918.696,VALID,0,VALID,89.7962,VALID,0,VALID,20.2489,VALID,5,VALID,0.414844,
2011-04-04, 00:26:04,VALID,918.694,VALID,0,VALID,89.7657,VALID,0,VALID,20.2489,VALID,5,VALID,0.417969,
2011-04-04, 00:27:04,VALID,918.712,VALID,0,VALID,89.537,VALID,0,VALID,20.2684,VALID,5,VALID,0.735156,
2011-04-04, 00:28:04,VALID,918.73,VALID,0,VALID,89.5218,VALID,0,VALID,20.3074,VALID,292,VALID,0.687109,
2011-04-04, 00:29:04,VALID,918.719,VALID,0,VALID,89.3464,VALID,0,VALID,20.3284,VALID,292,VALID,0.372656,
2011-04-04, 00:30:04,VALID,918.752,VALID,0,VALID,89.3846,VALID,0,VALID,20.3074,VALID,292,VALID,0.514063,
2011-04-04, 00:31:04,VALID,918.703,VALID,0,VALID,89.4379,VALID,0,VALID,20.3074,VALID,292,VALID,0.699609,
2011-04-04, 00:32:04,VALID,918.736,VALID,0,VALID,88.828,VALID,0,VALID,20.3074,VALID,292,VALID,0.310547,
2011-04-04, 00:33:04,VALID,918.673,VALID,0,VALID,88.9881,VALID,0,VALID,20.2489,VALID,297,VALID,0.80625,
2011-04-04, 00:34:04,VALID,918.681,VALID,0,VALID,89.7047,VALID,0,VALID,20.2489,VALID,6,VALID,1.58516,
2011-04-04, 00:35:04,VALID,918.674,VALID,0,VALID,89.6514,VALID,0,VALID,20.2894,VALID,355,VALID,1.21523,
2011-04-04, 00:36:04,VALID,918.648,VALID,0,VALID,89.3541,VALID,0,VALID,20.3269,VALID,357,VALID,0.391016,
2011-04-04, 00:37:04,VALID,918.628,VALID,0,VALID,89.1254,VALID,0,VALID,20.3479,VALID,357,VALID,0.820703,
2011-04-04, 00:38:04,VALID,918.599,VALID,0,VALID,89.2702,VALID,0,VALID,20.3269,VALID,357,VALID,0.644922,
2011-04-04, 00:39:04,VALID,918.536,VALID,0,VALID,89.415,VALID,0,VALID,20.3284,VALID,357,VALID,0.140234,
2011-04-04, 00:40:04,VALID,918.513,VALID,0,VALID,89.4303,VALID,0,VALID,20.2684,VALID,357,VALID,0.290234,
2011-04-04, 00:41:04,VALID,918.489,VALID,0,VALID,89.6285,VALID,0,VALID,20.2293,VALID,357,VALID,0.629687,
2011-04-04, 00:42:04,VALID,918.485,VALID,0,VALID,89.7429,VALID,0,VALID,20.1919,VALID,357,VALID,0.736719,
2011-04-04, 00:43:04,VALID,918.487,VALID,0,VALID,90.3604,VALID,0,VALID,20.1529,VALID,357,VALID,0.572656,
2011-04-04, 00:44:04,VALID,918.449,VALID,0,VALID,90.5814,VALID,0,VALID,20.1529,VALID,357,VALID,0.933203,
2011-04-04, 00:45:04,VALID,918.424,VALID,0,VALID,90.4442,VALID,0,VALID,20.1724,VALID,357,VALID,0.691406,
2011-04-04, 00:46:04,VALID,918.4,VALID,0,VALID,90.063,VALID,0,VALID,20.1708,VALID,357,VALID,0.392578,
2011-04-04, 00:47:04,VALID,918.417,VALID,0,VALID,89.9944,VALID,0,VALID,20.1513,VALID,357,VALID,0.264062,
2011-04-04, 00:48:04,VALID,918.433,VALID,0,VALID,90.0554,VALID,0,VALID,20.1513,VALID,357,VALID,0.432422,
2011-04-04, 00:49:04,VALID,918.441,VALID,0,VALID,90.5128,VALID,0,VALID,20.1123,VALID,357,VALID,0.681641,
2011-04-04, 00:50:04,VALID,918.401,VALID,0,VALID,90.7415,VALID,0,VALID,20.0718,VALID,357,VALID,0.541406,
2011-04-04, 00:51:04,VALID,918.434,VALID,0,VALID,90.6195,VALID,0,VALID,20.0928,VALID,357,VALID,0.373047,
2011-04-04, 00:52:04,VALID,918.351,VALID,0,VALID,90.5586,VALID,0,VALID,20.0944,VALID,357,VALID,0.460156,
2011-04-04, 00:53:04,VALID,918.363,VALID,0,VALID,90.6805,VALID,0,VALID,20.0538,VALID,357,VALID,0.527734,
2011-04-04, 00:54:04,VALID,918.387,VALID,0,VALID,91.1837,VALID,0,VALID,19.9953,VALID,357,VALID,0.669141,
2011-04-04, 00:55:04,VALID,918.367,VALID,0,VALID,91.3285,VALID,0,VALID,19.9758,VALID,357,VALID,0.844141,
2011-04-04, 00:56:04,VALID,918.375,VALID,0,VALID,91.2675,VALID,0,VALID,19.9563,VALID,357,VALID,0.69375,
2011-04-04, 00:57:04,VALID,918.391,VALID,0,VALID,91.5496,VALID,0,VALID,19.9368,VALID,357,VALID,0.952344,
2011-04-04, 00:58:04,VALID,918.395,VALID,0,VALID,91.6182,VALID,0,VALID,19.9368,VALID,357,VALID,0.610156,
2011-04-04, 00:59:04,VALID,918.4,VALID,0,VALID,91.7326,VALID,0,VALID,19.9383,VALID,357,VALID,0.438281,
2011-04-04, 01:00:04,VALID,918.388,VALID,0,VALID,91.6258,VALID,0,VALID,19.9173,VALID,357,VALID,0.559375,
2011-04-04, 01:01:04,VALID,918.4,VALID,0,VALID,91.6258,VALID,0,VALID,19.9188,VALID,357,VALID,0.422656,
2011-04-04, 01:02:04,VALID,918.388,VALID,0,VALID,91.9003,VALID,0,VALID,19.8993,VALID,357,VALID,0.362891,
2011-04-04, 01:03:04,VALID,918.359,VALID,0,VALID,92.1823,VALID,0,VALID,19.8783,VALID,357,VALID,0.507031,
2011-04-04, 01:04:04,VALID,918.358,VALID,0,VALID,92.1747,VALID,0,VALID,19.8978,VALID,357,VALID,0.398047,
2011-04-04, 01:05:04,VALID,918.368,VALID,0,VALID,92.1214,VALID,0,VALID,19.9578,VALID,357,VALID,0.209375,
2011-04-04, 01:06:04,VALID,918.327,VALID,0,VALID,92.0756,VALID,0,VALID,19.9368,VALID,357,VALID,0.564062,
2011-04-04, 01:07:04,VALID,918.304,VALID,0,VALID,91.9689,VALID,0,VALID,20.0389,VALID,357,VALID,0.354688,
2011-04-04, 01:08:04,VALID,918.247,VALID,0,VALID,91.7249,VALID,0,VALID,20.0148,VALID,357,VALID,0.876953,
2011-04-04, 01:09:04,VALID,918.254,VALID,0,VALID,91.4048,VALID,0,VALID,20.0733,VALID,357,VALID,0.419141,
2011-04-04, 01:10:04,VALID,918.25,VALID,0,VALID,91.1989,VALID,0,VALID,20.0913,VALID,357,VALID,0.944141,
2011-04-04, 01:11:04,VALID,918.228,VALID,0,VALID,90.9931,VALID,0,VALID,20.1513,VALID,357,VALID,0.267578,
2011-04-04, 01:12:04,VALID,918.211,VALID,0,VALID,90.7949,VALID,0,VALID,20.1483,VALID,357,VALID,0.416406,
2011-04-04, 01:13:04,VALID,918.24,VALID,0,VALID,90.7873,VALID,0,VALID,20.1888,VALID,357,VALID,0.288281,
2011-04-04, 01:14:04,VALID,918.218,VALID,0,VALID,90.6272,VALID,0,VALID,20.1903,VALID,357,VALID,0.459766,
2011-04-04, 01:15:04,VALID,918.203,VALID,0,VALID,90.6195,VALID,0,VALID,20.1888,VALID,357,VALID,0.299609,
2011-04-04, 01:16:04,VALID,918.225,VALID,0,VALID,90.6272,VALID,0,VALID,20.1678,VALID,357,VALID,0.444141,
2011-04-04, 01:17:04,VALID,918.219,VALID,0,VALID,90.6424,VALID,0,VALID,20.2114,VALID,357,VALID,0.622266,
2011-04-04, 01:18:04,VALID,918.229,VALID,0,VALID,90.6653,VALID,0,VALID,20.2309,VALID,357,VALID,0.213672,
2011-04-04, 01:19:04,VALID,918.239,VALID,0,VALID,90.7644,VALID,0,VALID,20.2519,VALID,357,VALID,0.404297,
2011-04-04, 01:20:04,VALID,918.223,VALID,0,VALID,90.6882,VALID,0,VALID,20.1888,VALID,357,VALID,0.742188,
2011-04-04, 01:21:04,VALID,918.215,VALID,0,VALID,90.6195,VALID,0,VALID,20.2083,VALID,357,VALID,0.493359,
2011-04-04, 01:22:04,VALID,918.192,VALID,0,VALID,90.5128,VALID,0,VALID,20.2684,VALID,357,VALID,0.575391,
2011-04-04, 01:23:04,VALID,918.198,VALID,0,VALID,90.3985,VALID,0.107441,VALID,20.2263,VALID,357,VALID,0.158203,
2011-04-04, 01:24:04,VALID,918.221,VALID,0,VALID,90.368,VALID,0,VALID,20.2473,VALID,357,VALID,0.335156,
2011-04-04, 01:25:04,VALID,918.204,VALID,0,VALID,90.2917,VALID,0,VALID,20.2247,VALID,357,VALID,0.307422,
2011-04-04, 01:26:04,VALID,918.205,VALID,0,VALID,90.2765,VALID,0.107441,VALID,20.2879,VALID,357,VALID,0.305469,
2011-04-04, 01:27:04,VALID,918.206,VALID,0,VALID,90.2917,VALID,0,VALID,20.2458,VALID,357,VALID,0.078125,
2011-04-04, 01:28:04,VALID,918.203,VALID,0,VALID,90.2612,VALID,0,VALID,20.369,VALID,357,VALID,0.528906,
2011-04-04, 01:29:04,VALID,918.17,VALID,0,VALID,90.1316,VALID,0.107441,VALID,20.3269,VALID,357,VALID,1.0918,
2011-04-04, 01:30:04,VALID,918.121,VALID,0,VALID,90.1088,VALID,0.107441,VALID,20.2848,VALID,358,VALID,0.808594,
2011-04-04, 01:31:04,VALID,918.099,VALID,0,VALID,90.0935,VALID,0,VALID,20.2653,VALID,27,VALID,0.941016,
2011-04-04, 01:32:04,VALID,918.104,VALID,0,VALID,89.9792,VALID,0.107441,VALID,20.2848,VALID,27,VALID,0.475391,
2011-04-04, 01:33:04,VALID,918.068,VALID,0,VALID,89.9487,VALID,0,VALID,20.3058,VALID,27,VALID,0.310937,
2011-04-04, 01:34:04,VALID,918.049,VALID,0,VALID,89.9411,VALID,0,VALID,20.2848,VALID,27,VALID,0.966797,
2011-04-04, 01:35:04,VALID,918.025,VALID,0,VALID,89.9716,VALID,0.107441,VALID,20.3269,VALID,349,VALID,0.865625,
2011-04-04, 01:36:04,VALID,918.005,VALID,0,VALID,89.9716,VALID,0,VALID,20.3284,VALID,333,VALID,0.728906,
2011-04-04, 01:37:04,VALID,918.008,VALID,0,VALID,89.8572,VALID,0,VALID,20.3058,VALID,333,VALID,0.628906,
2011-04-04, 01:38:04,VALID,918.009,VALID,0,VALID,89.72,VALID,0,VALID,20.3674,VALID,333,VALID,0.433203,
2011-04-04, 01:39:04,VALID,918.003,VALID,0,VALID,89.5065,VALID,0,VALID,20.3464,VALID,333,VALID,0.856641,
2011-04-04, 01:40:04,VALID,917.998,VALID,0,VALID,89.5523,VALID,0,VALID,20.3043,VALID,356,VALID,0.655859,
2011-04-04, 01:41:04,VALID,917.933,VALID,0,VALID,89.6133,VALID,0,VALID,20.2247,VALID,356,VALID,0.918359,
2011-04-04, 01:42:04,VALID,917.933,VALID,0,VALID,89.9182,VALID,0,VALID,20.2083,VALID,19,VALID,0.676953,
2011-04-04, 01:43:04,VALID,917.927,VALID,0,VALID,90.0402,VALID,0,VALID,20.1498,VALID,19,VALID,0.38125,
2011-04-04, 01:44:04,VALID,917.872,VALID,0,VALID,90.4366,VALID,0,VALID,20.1093,VALID,19,VALID,0.689062,
2011-04-04, 01:45:04,VALID,917.839,VALID,0,VALID,90.711,VALID,0,VALID,20.1139,VALID,19,VALID,1.00508,
2011-04-04, 01:46:04,VALID,917.825,VALID,0,VALID,90.8864,VALID,0,VALID,20.0928,VALID,19,VALID,0.525781,
2011-04-04, 01:47:04,VALID,917.809,VALID,0,VALID,90.9702,VALID,0,VALID,20.0118,VALID,19,VALID,0.625781,
2011-04-04, 01:48:04,VALID,917.8,VALID,0,VALID,90.9855,VALID,0,VALID,20.0538,VALID,19,VALID,0.202734,
2011-04-04, 01:49:04,VALID,917.789,VALID,0,VALID,91.0693,VALID,0,VALID,20.0343,VALID,19,VALID,0.632031,
2011-04-04, 01:50:04,VALID,917.767,VALID,0,VALID,91.0846,VALID,0,VALID,20.0553,VALID,19,VALID,0.621094,
2011-04-04, 01:51:04,VALID,917.788,VALID,0,VALID,91.0998,VALID,0,VALID,20.0553,VALID,19,VALID,0.647656,
2011-04-04, 01:52:04,VALID,917.763,VALID,0,VALID,90.9931,VALID,0,VALID,20.0569,VALID,19,VALID,0.791406,
2011-04-04, 01:53:04,VALID,917.782,VALID,0,VALID,90.955,VALID,0,VALID,20.0974,VALID,19,VALID,0.911328,
2011-04-04, 01:54:04,VALID,917.771,VALID,0,VALID,90.8864,VALID,0,VALID,20.0328,VALID,19,VALID,0.434375,
2011-04-04, 01:55:04,VALID,917.762,VALID,0,VALID,90.894,VALID,0,VALID,20.0328,VALID,19,VALID,0.312891,
2011-04-04, 01:56:04,VALID,917.688,VALID,0,VALID,90.9245,VALID,0,VALID,20.1154,VALID,19,VALID,1.29336,
2011-04-04, 01:57:04,VALID,917.735,VALID,0,VALID,90.6577,VALID,0,VALID,20.0959,VALID,18,VALID,1.05391,
2011-04-04, 01:58:04,VALID,917.693,VALID,0,VALID,90.5738,VALID,0,VALID,20.0133,VALID,18,VALID,0.979688,
2011-04-04, 01:59:04,VALID,917.679,VALID,0,VALID,90.8864,VALID,0,VALID,19.9758,VALID,18,VALID,0.854688,
2011-04-04, 02:00:04,VALID,917.682,VALID,0,VALID,91.1532,VALID,0,VALID,19.9353,VALID,18,VALID,1.23867,
2011-04-04, 02:01:04,VALID,917.676,VALID,0,VALID,91.1913,VALID,0,VALID,19.9368,VALID,6,VALID,1.09141,
2011-04-04, 02:02:04,VALID,917.684,VALID,0,VALID,90.9397,VALID,0,VALID,19.9353,VALID,6,VALID,1.00312,
2011-04-04, 02:03:04,VALID,917.687,VALID,0,VALID,91.016,VALID,0,VALID,19.9773,VALID,7,VALID,1.09609,
2011-04-04, 02:04:04,VALID,917.666,VALID,0,VALID,90.9626,VALID,0,VALID,19.9968,VALID,6,VALID,1.00273,
2011-04-04, 02:05:04,VALID,917.629,VALID,0,VALID,90.8711,VALID,0,VALID,19.9968,VALID,6,VALID,0.636328,
2011-04-04, 02:06:04,VALID,917.676,VALID,0,VALID,90.955,VALID,0,VALID,19.9548,VALID,7,VALID,0.782812,
2011-04-04, 02:07:04,VALID,917.61,VALID,0,VALID,90.955,VALID,0,VALID,19.9953,VALID,7,VALID,0.721484,
2011-04-04, 02:08:04,VALID,917.601,VALID,0,VALID,90.9473,VALID,0,VALID,19.9758,VALID,7,VALID,0.74375,
2011-04-04, 02:09:04,VALID,917.598,VALID,0,VALID,90.8254,VALID,0,VALID,19.9353,VALID,6,VALID,0.917578,
2011-04-04, 02:10:04,VALID,917.545,VALID,0,VALID,90.7568,VALID,0,VALID,19.8948,VALID,7,VALID,1.11758,
2011-04-04, 02:11:04,VALID,917.537,VALID,0,VALID,90.8101,VALID,0,VALID,19.9383,VALID,7,VALID,1.10195,
2011-04-04, 02:12:04,VALID,917.512,VALID,0,VALID,90.9245,VALID,0,VALID,19.8768,VALID,6,VALID,0.784375,
2011-04-04, 02:13:04,VALID,917.495,VALID,0,VALID,91.0388,VALID,0,VALID,19.8993,VALID,7,VALID,0.922656,
2011-04-04, 02:14:04,VALID,917.442,VALID,0,VALID,90.955,VALID,0,VALID,19.8393,VALID,7,VALID,1.07109,
2011-04-04, 02:15:04,VALID,917.478,VALID,0,VALID,90.9092,VALID,0,VALID,19.8393,VALID,7,VALID,0.840234,
2011-04-04, 02:16:04,VALID,917.447,VALID,0,VALID,91.016,VALID,0,VALID,19.8783,VALID,6,VALID,0.976172,
2011-04-04, 02:17:04,VALID,917.45,VALID,0,VALID,90.7415,VALID,0,VALID,19.9383,VALID,6,VALID,1.40586,
2011-04-04, 02:18:04,VALID,917.446,VALID,0,VALID,90.3375,VALID,0,VALID,19.9578,VALID,6,VALID,0.729688,
2011-04-04, 02:19:04,VALID,917.402,VALID,0,VALID,90.3527,VALID,0,VALID,19.9173,VALID,6,VALID,0.663281,
2011-04-04, 02:20:04,VALID,917.409,VALID,0,VALID,90.5967,VALID,0,VALID,19.8978,VALID,6,VALID,0.601563,
2011-04-04, 02:21:04,VALID,917.407,VALID,0,VALID,90.6882,VALID,0,VALID,19.9188,VALID,6,VALID,0.828125,
2011-04-04, 02:22:04,VALID,917.411,VALID,0,VALID,90.5891,VALID,0,VALID,19.8963,VALID,2,VALID,0.85,
2011-04-04, 02:23:04,VALID,917.398,VALID,0,VALID,90.0554,VALID,0,VALID,19.9758,VALID,360,VALID,0.693359,
2011-04-04, 02:24:04,VALID,917.408,VALID,0,VALID,89.8725,VALID,0,VALID,20.0148,VALID,360,VALID,0.2125,
2011-04-04, 02:25:04,VALID,917.419,VALID,0,VALID,90.2612,VALID,0,VALID,20.0553,VALID,360,VALID,0.0410156,
2011-04-04, 02:26:04,VALID,917.413,VALID,0,VALID,90.2155,VALID,0,VALID,20.0148,VALID,360,VALID,0.651172,
2011-04-04, 02:27:04,VALID,917.395,VALID,0,VALID,89.8115,VALID,0,VALID,20.0148,VALID,360,VALID,0.685938,
2011-04-04, 02:28:04,VALID,917.387,VALID,0,VALID,89.8496,VALID,0,VALID,20.0358,VALID,360,VALID,0.301953,
2011-04-04, 02:29:04,VALID,917.373,VALID,0,VALID,89.7886,VALID,0,VALID,20.0148,VALID,18,VALID,0.994141,
2011-04-04, 02:30:04,VALID,917.346,VALID,0,VALID,89.4989,VALID,0,VALID,20.0538,VALID,18,VALID,0.648438,
2011-04-04, 02:31:04,VALID,917.325,VALID,0,VALID,89.5142,VALID,0,VALID,20.0343,VALID,18,VALID,0.625391,
2011-04-04, 02:32:04,VALID,917.318,VALID,0,VALID,89.6514,VALID,0,VALID,20.0358,VALID,18,VALID,0.610156,
2011-04-04, 02:33:04,VALID,917.295,VALID,0,VALID,89.5065,VALID,0,VALID,20.0163,VALID,18,VALID,0.612109,
2011-04-04, 02:34:04,VALID,917.295,VALID,0,VALID,89.8115,VALID,0,VALID,19.9563,VALID,18,VALID,0.654297,
2011-04-04, 02:35:04,VALID,917.251,VALID,0,VALID,89.8725,VALID,0,VALID,19.9368,VALID,18,VALID,0.619141,
2011-04-04, 02:36:04,VALID,917.265,VALID,0,VALID,90.2689,VALID,0,VALID,19.9173,VALID,18,VALID,0.874219,
2011-04-04, 02:37:04,VALID,917.243,VALID,0,VALID,90.124,VALID,0,VALID,19.8588,VALID,18,VALID,1.04727,
2011-04-04, 02:38:04,VALID,917.226,VALID,0,VALID,90.6805,VALID,0.107441,VALID,19.7793,VALID,18,VALID,0.883984,
2011-04-04, 02:39:04,VALID,917.215,VALID,0,VALID,90.6577,VALID,0,VALID,19.7598,VALID,18,VALID,0.489062,
2011-04-04, 02:40:04,VALID,917.189,VALID,0,VALID,90.9092,VALID,0,VALID,19.7598,VALID,18,VALID,0.597656,
2011-04-04, 02:41:04,VALID,917.197,VALID,0,VALID,90.8864,VALID,0.107441,VALID,19.7598,VALID,18,VALID,0.882813,
2011-04-04, 02:42:04,VALID,917.147,VALID,0,VALID,90.5281,VALID,0.107441,VALID,19.8393,VALID,18,VALID,0.915234,
2011-04-04, 02:43:04,VALID,917.145,VALID,0,VALID,90.2079,VALID,0,VALID,19.8978,VALID,352,VALID,0.974219,
2011-04-04, 02:44:04,VALID,917.103,VALID,0,VALID,89.9563,VALID,0.107441,VALID,19.8963,VALID,352,VALID,0.449219,
2011-04-04, 02:45:04,VALID,917.075,VALID,0,VALID,89.8343,VALID,0,VALID,19.8963,VALID,352,VALID,0.41875,
2011-04-04, 02:46:04,VALID,917.059,VALID,0,VALID,90.1164,VALID,0,VALID,19.8768,VALID,352,VALID,0.297266,
2011-04-04, 02:47:04,VALID,917.017,VALID,0,VALID,90.3908,VALID,0,VALID,19.8573,VALID,352,VALID,0.4,
2011-04-04, 02:48:04,VALID,916.986,VALID,0,VALID,90.6653,VALID,0,VALID,19.8603,VALID,352,VALID,0,
2011-04-04, 02:49:04,VALID,916.984,VALID,0,VALID,90.6958,VALID,0,VALID,19.7988,VALID,352,VALID,0.717188,
2011-04-04, 02:50:04,VALID,916.982,VALID,0,VALID,91.0083,VALID,0,VALID,19.7613,VALID,352,VALID,0.439844,
2011-04-04, 02:51:04,VALID,916.995,VALID,0,VALID,91.2904,VALID,0,VALID,19.7418,VALID,352,VALID,0.682422,
2011-04-04, 02:52:04,VALID,917.004,VALID,0,VALID,91.2294,VALID,0,VALID,19.7223,VALID,352,VALID,0.359375,
2011-04-04, 02:53:04,VALID,916.998,VALID,0,VALID,91.2218,VALID,0,VALID,19.7238,VALID,352,VALID,0.205859,
2011-04-04, 02:54:04,VALID,916.993,VALID,0,VALID,90.9473,VALID,0,VALID,19.6848,VALID,352,VALID,0.498047,
2011-04-04, 02:55:04,VALID,916.969,VALID,0,VALID,91.1456,VALID,0,VALID,19.5858,VALID,352,VALID,0.511719,
2011-04-04, 02:56:04,VALID,916.973,VALID,0,VALID,91.6716,VALID,0,VALID,19.5888,VALID,352,VALID,0.50625,
2011-04-04, 02:57:04,VALID,916.963,VALID,0,VALID,91.8088,VALID,0,VALID,19.5483,VALID,352,VALID,0.453906,
2011-04-04, 02:58:04,VALID,916.962,VALID,0,VALID,91.8164,VALID,0,VALID,19.5303,VALID,352,VALID,0.404687,
2011-04-04, 02:59:04,VALID,916.947,VALID,0,VALID,92.1747,VALID,0,VALID,19.5078,VALID,352,VALID,0.516016,
2011-04-04, 03:00:04,VALID,916.942,VALID,0,VALID,92.2281,VALID,0,VALID,19.5288,VALID,352,VALID,0.348437,
2011-04-04, 03:01:04,VALID,916.942,VALID,0,VALID,92.068,VALID,0,VALID,19.5468,VALID,352,VALID,0.382422,
2011-04-04, 03:02:04,VALID,916.922,VALID,0,VALID,91.7783,VALID,0,VALID,19.4658,VALID,352,VALID,0,
2011-04-04, 03:03:04,VALID,916.928,VALID,0,VALID,92.0756,VALID,0,VALID,19.5288,VALID,352,VALID,0.289453,
2011-04-04, 03:04:04,VALID,916.95,VALID,0,VALID,92.3348,VALID,0,VALID,19.5498,VALID,352,VALID,0.300391,
2011-04-04, 03:05:04,VALID,916.954,VALID,0,VALID,92.5406,VALID,0,VALID,19.5078,VALID,352,VALID,0.456641,
2011-04-04, 03:06:04,VALID,916.932,VALID,0,VALID,92.7236,VALID,0,VALID,19.5273,VALID,352,VALID,0.244922,
2011-04-04, 03:07:04,VALID,916.929,VALID,0,VALID,91.3666,VALID,0,VALID,19.4493,VALID,352,VALID,0.251172,
2011-04-04, 03:08:04,VALID,916.884,VALID,0,VALID,92.7236,VALID,0,VALID,19.4688,VALID,352,VALID,0.191797,
2011-04-04, 03:09:04,VALID,916.841,VALID,0,VALID,93.0667,VALID,0,VALID,19.4688,VALID,352,VALID,0.327344,
2011-04-04, 03:10:04,VALID,916.827,VALID,0,VALID,93.0514,VALID,0,VALID,19.4703,VALID,352,VALID,0.520703,
2011-04-04, 03:11:04,VALID,916.875,VALID,0,VALID,93.12,VALID,0,VALID,19.4298,VALID,352,VALID,0.639063,
2011-04-04, 03:12:04,VALID,916.878,VALID,0,VALID,93.3411,VALID,0,VALID,19.4703,VALID,352,VALID,0.440234,
2011-04-04, 03:13:04,VALID,916.865,VALID,0,VALID,93.425,VALID,0,VALID,19.4883,VALID,352,VALID,0.228906,
2011-04-04, 03:14:04,VALID,916.867,VALID,0,VALID,93.5546,VALID,0,VALID,19.4883,VALID,352,VALID,0.232812,
2011-04-04, 03:15:04,VALID,916.869,VALID,0,VALID,93.4936,VALID,0,VALID,19.4688,VALID,352,VALID,0.235547,
2011-04-04, 03:16:04,VALID,916.891,VALID,0,VALID,93.4097,VALID,0,VALID,19.4898,VALID,352,VALID,0.500391,
2011-04-04, 03:17:04,VALID,916.911,VALID,0,VALID,93.4555,VALID,0,VALID,19.4688,VALID,352,VALID,0.672656,
2011-04-04, 03:18:04,VALID,916.888,VALID,0,VALID,93.4478,VALID,0,VALID,19.4688,VALID,352,VALID,0.182812,
2011-04-04, 03:19:04,VALID,916.863,VALID,0,VALID,92.8456,VALID,0,VALID,19.4313,VALID,352,VALID,0.622266,
2011-04-04, 03:20:04,VALID,916.854,VALID,0,VALID,93.1886,VALID,0,VALID,19.4118,VALID,352,VALID,1.075,
2011-04-04, 03:21:04,VALID,916.842,VALID,0,VALID,93.3411,VALID,0,VALID,19.3713,VALID,352,VALID,0.744531,
2011-04-04, 03:22:04,VALID,916.856,VALID,0,VALID,93.3411,VALID,0,VALID,19.3728,VALID,352,VALID,0.359375,
2011-04-04, 03:23:04,VALID,916.827,VALID,0,VALID,93.3945,VALID,0,VALID,19.3923,VALID,352,VALID,0.433203,
2011-04-04, 03:24:04,VALID,916.856,VALID,0,VALID,93.2191,VALID,0,VALID,19.3908,VALID,352,VALID,0.342187,
2011-04-04, 03:25:04,VALID,916.857,VALID,0,VALID,92.9904,VALID,0,VALID,19.4103,VALID,352,VALID,0.187891,
2011-04-04, 03:26:04,VALID,916.866,VALID,0,VALID,92.8685,VALID,0,VALID,19.4508,VALID,352,VALID,0.210938,
2011-04-04, 03:27:04,VALID,916.874,VALID,0,VALID,92.9752,VALID,0,VALID,19.4898,VALID,352,VALID,0.649219,
2011-04-04, 03:28:04,VALID,916.843,VALID,0,VALID,92.5025,VALID,0,VALID,19.4703,VALID,19,VALID,1.41797,
2011-04-04, 03:29:04,VALID,916.879,VALID,0,VALID,92.3958,VALID,0,VALID,19.4898,VALID,25,VALID,1.28828,
2011-04-04, 03:30:04,VALID,916.88,VALID,0,VALID,92.3729,VALID,0,VALID,19.5678,VALID,312,VALID,1.32383,
2011-04-04, 03:31:04,VALID,916.891,VALID,0,VALID,92.3958,VALID,0,VALID,19.6263,VALID,312,VALID,0.674219,
2011-04-04, 03:32:04,VALID,916.923,VALID,0,VALID,92.4415,VALID,0,VALID,19.6458,VALID,312,VALID,0.427734,
2011-04-04, 03:33:04,VALID,916.92,VALID,0,VALID,92.2128,VALID,0,VALID,19.6248,VALID,312,VALID,0.901953,
2011-04-04, 03:34:04,VALID,916.92,VALID,0,VALID,92.0985,VALID,0,VALID,19.6263,VALID,312,VALID,0.885938,
2011-04-04, 03:35:04,VALID,916.92,VALID,0,VALID,92.0527,VALID,0,VALID,19.6653,VALID,354,VALID,0.419531,
2011-04-04, 03:36:04,VALID,916.93,VALID,0,VALID,91.9994,VALID,0,VALID,19.6443,VALID,354,VALID,0.555469,
2011-04-04, 03:37:04,VALID,916.919,VALID,0,VALID,91.9689,VALID,0,VALID,19.6638,VALID,354,VALID,0.471484,
2011-04-04, 03:38:04,VALID,916.919,VALID,0,VALID,92.1823,VALID,0,VALID,19.7043,VALID,354,VALID,0.192969,
2011-04-04, 03:39:04,VALID,916.903,VALID,0,VALID,92.3272,VALID,0,VALID,19.6848,VALID,354,VALID,0.451953,
2011-04-04, 03:40:04,VALID,916.915,VALID,0,VALID,92.3348,VALID,0,VALID,19.6638,VALID,332,VALID,0.745313,
2011-04-04, 03:41:04,VALID,916.896,VALID,0,VALID,92.0832,VALID,0,VALID,19.7223,VALID,322,VALID,0.742188,
2011-04-04, 03:42:04,VALID,916.919,VALID,0,VALID,92.1519,VALID,0,VALID,19.6833,VALID,322,VALID,0.692578,
2011-04-04, 03:43:04,VALID,916.94,VALID,0,VALID,92.2357,VALID,0,VALID,19.6638,VALID,322,VALID,0.436328,
2011-04-04, 03:44:04,VALID,916.945,VALID,0,VALID,92.2586,VALID,0,VALID,19.6443,VALID,333,VALID,1.00156,
2011-04-04, 03:45:04,VALID,916.915,VALID,0,VALID,92.3806,VALID,0,VALID,19.6038,VALID,349,VALID,0.733203,